Cuernavaca, Mexico

7:37 AM CDT on April 19, 2018 (GMT -0500)
Cuernavaca

Weather History for MMCB - November, 2012

Change the Weather History Date:

Friday, November 16, 2012

  Actual Average Record
Temperature  
Mean Temperature 69 °F -  
Max Temperature 81 °F 79 °F 91 °F (2005)
Min Temperature 57 °F 57 °F 53 °F (2008)
Cooling Degree Days 4    
Growing Degree Days 19 (Base 50)    
Moisture  
Dew Point 48 °F    
Average Humidity 43    
Maximum Humidity 77    
Minimum Humidity 26    
Precipitation  
Precipitation 0.00 in - - ()
Sea Level Pressure  
Sea Level Pressure 30.13 in    
Wind  
Wind Speed 3 mph ()    
Max Wind Speed 7 mph    
Max Gust Speed -    
Visibility 12.9 miles    
Events      
Averages and records for this station are not official NWS values.
T = Trace of Precipitation, MM = Missing Value Source: Averaged Metar Reports

Daily Weather History Graph

Daily Weather History Graph

Search for Another Location

Airport or City:

Astronomy

Nov. 16, 2012 Rise Set
Actual Time 6:45 AM CST 5:58 PM CST
Civil Twilight 6:21 AM CST 6:21 PM CST
Nautical Twilight 5:55 AM CST 6:48 PM CST
Astronomical Twilight 5:29 AM CST 7:14 PM CST
Moon 9:34 AM CST (11/16) 9:04 PM CST (11/16)
Length of Visible Light 11h 59m
Length of Day
11h 13m
Waxing Crescent, 12% of the Moon is Illuminated
Nov 16
Waxing Crescent
Nov 20
First Quarter
Nov 28
Full
Dec 6
Last Quarter
Dec 13
New

Hourly Weather History & Observations

Time (CST) Temp. Dew Point Humidity Pressure Visibility Wind Dir Wind Speed Gust Speed Precip Events Conditions
5:53 AM 57.2 °F 50.0 °F 77% 30.20 in 12.0 mi WNW 5.8 mph - N/A   Clear
6:46 AM 59.0 °F 50.0 °F 72% 30.22 in 20.0 mi WNW 4.6 mph - N/A   Clear
7:50 AM 64.4 °F 51.8 °F 64% 30.24 in 20.0 mi WNW 3.5 mph - N/A   Clear
8:40 AM 66 °F 51 °F 48% 30.11 in 12 mi NNW 2.2 mph - -  
8:46 AM 68.0 °F 50.0 °F 52% 30.25 in 20.0 mi SW 5.8 mph - N/A   Clear
9:53 AM 69.8 °F 50.0 °F 49% 30.26 in 20.0 mi WNW 3.5 mph - N/A   Clear
10:48 AM 71.6 °F 48.2 °F 43% 30.24 in 15.0 mi Calm Calm - N/A   Clear
11:43 AM 73.4 °F 48.2 °F 41% 30.22 in 12.0 mi SSW 3.5 mph - N/A   Clear
12:49 PM 77.0 °F 46.4 °F 34% 30.18 in 12.0 mi SW 6.9 mph - N/A   Clear
1:42 PM 77.0 °F 46.4 °F 34% 30.14 in 12.0 mi East 3.5 mph - N/A   Clear
2:46 PM 78.8 °F 41.0 °F 26% 30.11 in 12.0 mi Calm Calm - N/A   Clear
3:50 PM 80.6 °F 42.8 °F 26% 30.09 in 10.0 mi WSW 4.6 mph - N/A   Clear
4:42 PM 78.8 °F 41.0 °F 26% 30.09 in 12.0 mi South 4.6 mph - N/A   Clear
5:41 PM 77.0 °F 44.6 °F 32% 30.10 in 10.0 mi Calm Calm - N/A   Partly Cloudy
5:50 PM 75 °F 48 °F 27% 29.77 in 12 mi WSW 2.2 mph - -   Partly Cloudy
6:40 PM 71.6 °F 46.4 °F 41% 30.11 in 8.0 mi North 4.6 mph - N/A   Partly Cloudy
7:40 PM 68.0 °F 48.2 °F 49% 30.14 in 8.0 mi Calm Calm - N/A   Scattered Clouds
8:40 PM 72 °F 49 °F 33% 29.81 in 11 mi North 2.2 mph - -   Scattered Clouds
8:40 PM 68.0 °F 50.0 °F 52% 30.16 in 7.0 mi WNW 3.5 mph - N/A   Mostly Cloudy